Flag for Germany Weather past 2 weeks in Sonneberg, Thuringia, Germany

Now
32 °F

Cloudy.


Feels Like: 26 °F
Forecast: 27 / 31 °F
Wind: 6 mph from West

Location: Hof Airport

Current Time: Jan 25, 2015 at 11:19:57 AM

Latest Report: Jan 25, 2015 at 10:50 AM


Visibility: N/A

Pressure: 30.27 "Hg

Humidity: 87%

Dew point: 28 °F

Location of SonnebergLocation

Historic Weather in Sonneberg — Graph

°F

Sonneberg temperature yesterday

Maximum temperature yesterday: 28 °F (at 1:20 PM)
Minimum temperature yesterday: 27 °F (at 8:50 AM)
Average temperature yesterday: 27 °F

Past Weeks' High & Low Weather Summary

 TemperatureHumidityPressure
High52 °F (Jan 10, 10:20 AM)100% (Jan 22, 6:50 AM)30.27 "Hg (Jan 22, 6:50 AM)
Low25 °F (Jan 21, 7:50 AM)40% (Jan 13, 1:50 PM)29.71 "Hg (Jan 10, 2:50 PM)
Average34 °F84%29.90 "Hg
* Reported Jan 10 10:20 AM — Jan 25 10:20 AM, Sonneberg, Weather by CustomWeather, © 2014

Note: Actual official high and low records may vary slightly from our data, if they occured in-between our weather recording intervals... More about our weather records

Advertising

Sonneberg weather history for previous 24 hours

 ConditionsComfort  
Time TempWeatherWind HumidityBarometerVisibility
10:20 AM
Jan 25
30 °FMore clouds than sun.6 mph93%30.27 "HgN/A
9:50 AM30 °FMostly cloudy.7 mph93%30.27 "HgN/A
9:20 AM30 °FMostly cloudy.6 mph93%30.24 "HgN/A
8:50 AM30 °FMostly cloudy.6 mph93%30.24 "HgN/A
6:50 PM
Jan 24
27 °FPassing clouds.5 mph86%30.07 "Hg5 mi
6:20 PM27 °FOvercast.8 mph86%30.04 "Hg6 mi
5:50 PM27 °FMostly cloudy.10 mph86%30.04 "HgN/A
5:20 PM27 °FMostly cloudy.12 mph93%30.04 "Hg4 mi
4:50 PM27 °FOvercast.9 mph86%30.01 "HgN/A
4:20 PM27 °FOvercast.10 mph93%30.01 "Hg5 mi
3:50 PM27 °FMostly cloudy.13 mph93%30.01 "Hg6 mi
3:20 PM28 °FMostly cloudy.12 mph86%30.01 "HgN/A
2:50 PM28 °FLow clouds.10 mph86%30.01 "HgN/A
2:20 PM28 °FLow clouds.9 mph86%30.01 "HgN/A
1:50 PM28 °FLow clouds.8 mph93%30.01 "HgN/A
1:20 PM28 °FLow clouds.7 mph86%30.01 "HgN/A
12:50 PM27 °FMostly cloudy.9 mph93%30.04 "HgN/A
12:20 PM27 °FLow clouds.8 mph93%30.04 "HgN/A
11:50 AM27 °FLow clouds.8 mph93%30.04 "HgN/A
11:20 AM27 °FLow clouds.9 mph93%30.07 "Hg5 mi
Weather by CustomWeather, © 2014

See weather overviewHow to use our weather pages